Time,TemperatureF,DewpointF,PressureIn,WindDirection,WindDirectionDegrees,WindSpeedMPH,WindSpeedGustMPH,Humidity,HourlyPrecipIn,Conditions,Clouds,dailyrainin,SoftwareType,DateUTC
2013-05-15 00:00:00,32.0,-99.9,-100.00,North,-999,-999.0,-999.0,-999,0.00,,,0.00,,2013-05-15 04:00:00,
2013-05-15 00:24:00,32.0,-99.9,-100.00,North,-999,-999.0,-999.0,-999,0.00,,,0.00,,2013-05-15 04:24:00,
2013-05-15 00:33:00,32.0,-99.9,-100.00,North,-999,-999.0,-999.0,-999,0.00,,,0.00,,2013-05-15 04:33:00,
2013-05-15 00:43:00,32.0,-99.9,-100.00,North,-999,-999.0,-999.0,-999,0.00,,,0.00,,2013-05-15 04:43:00,
2013-05-15 00:53:00,32.0,-99.9,-100.00,North,-999,-999.0,-999.0,-999,0.00,,,0.00,,2013-05-15 04:53:00,
2013-05-15 01:00:00,32.0,-99.9,-100.00,North,-999,-999.0,-999.0,-999,0.00,,,0.00,,2013-05-15 05:00:00,
2013-05-15 01:22:00,32.0,-99.9,-100.00,North,-999,-999.0,-999.0,-999,0.00,,,0.00,,2013-05-15 05:22:00,
2013-05-15 01:32:00,32.0,-99.9,-100.00,North,-999,-999.0,-999.0,-999,0.00,,,0.00,,2013-05-15 05:32:00,
2013-05-15 01:42:00,32.0,-99.9,-100.00,North,-999,-999.0,-999.0,-999,0.00,,,0.00,,2013-05-15 05:42:00,
2013-05-15 01:52:00,32.0,-99.9,-100.00,North,-999,-999.0,-999.0,-999,0.00,,,0.00,,2013-05-15 05:52:00,
2013-05-15 02:00:00,29.0,-99.9,-100.00,North,-999,-999.0,-999.0,-999,0.00,,,0.00,,2013-05-15 06:00:00,
2013-05-15 02:22:00,29.0,-99.9,-100.00,North,-999,-999.0,-999.0,-999,0.00,,,0.00,,2013-05-15 06:22:00,
2013-05-15 02:32:00,29.0,-99.9,-100.00,North,-999,-999.0,-999.0,-999,0.00,,,0.00,,2013-05-15 06:32:00,
2013-05-15 02:42:00,29.0,-99.9,-100.00,North,-999,-999.0,-999.0,-999,0.00,,,0.00,,2013-05-15 06:42:00,
2013-05-15 02:52:00,29.0,-99.9,-100.00,North,-999,-999.0,-999.0,-999,0.00,,,0.00,,2013-05-15 06:52:00,
2013-05-15 03:00:00,29.0,-99.9,-100.00,North,-999,-999.0,-999.0,-999,0.00,,,0.00,,2013-05-15 07:00:00,
2013-05-15 03:33:00,29.0,-99.9,-100.00,North,-999,-999.0,-999.0,-999,0.00,,,0.00,,2013-05-15 07:33:00,
2013-05-15 03:42:00,29.0,-99.9,-100.00,North,-999,-999.0,-999.0,-999,0.00,,,0.00,,2013-05-15 07:42:00,
2013-05-15 03:52:00,29.0,-99.9,-100.00,North,-999,-999.0,-999.0,-999,0.00,,,0.00,,2013-05-15 07:52:00,
2013-05-15 04:00:00,28.0,-99.9,-100.00,North,-999,-999.0,-999.0,-999,0.00,,,0.00,,2013-05-15 08:00:00,
2013-05-15 04:22:00,28.0,-99.9,-100.00,North,-999,-999.0,-999.0,-999,0.00,,,0.00,,2013-05-15 08:22:00,
2013-05-15 04:32:00,28.0,-99.9,-100.00,North,-999,-999.0,-999.0,-999,0.00,,,0.00,,2013-05-15 08:32:00,
2013-05-15 04:42:00,28.0,-99.9,-100.00,North,-999,-999.0,-999.0,-999,0.00,,,0.00,,2013-05-15 08:42:00,
2013-05-15 04:53:00,28.0,-99.9,-100.00,North,-999,-999.0,-999.0,-999,0.00,,,0.00,,2013-05-15 08:53:00,
2013-05-15 05:00:00,28.0,-99.9,-100.00,North,-999,-999.0,-999.0,-999,0.00,,,0.00,,2013-05-15 09:00:00,
2013-05-15 05:22:00,28.0,-99.9,-100.00,North,-999,-999.0,-999.0,-999,0.00,,,0.00,,2013-05-15 09:22:00,
2013-05-15 05:33:00,28.0,-99.9,-100.00,North,-999,-999.0,-999.0,-999,0.00,,,0.00,,2013-05-15 09:33:00,
2013-05-15 05:43:00,28.0,-99.9,-100.00,North,-999,-999.0,-999.0,-999,0.00,,,0.00,,2013-05-15 09:43:00,
2013-05-15 05:53:00,28.0,-99.9,-100.00,North,-999,-999.0,-999.0,-999,0.00,,,0.00,,2013-05-15 09:53:00,
2013-05-15 06:00:00,29.0,-99.9,-100.00,North,-999,-999.0,-999.0,-999,0.00,,,0.00,,2013-05-15 10:00:00,
2013-05-15 06:23:00,29.0,-99.9,-100.00,North,-999,-999.0,-999.0,-999,0.00,,,0.00,,2013-05-15 10:23:00,
2013-05-15 06:33:00,29.0,-99.9,-100.00,North,-999,-999.0,-999.0,-999,0.00,,,0.00,,2013-05-15 10:33:00,
2013-05-15 06:43:00,29.0,-99.9,-100.00,North,-999,-999.0,-999.0,-999,0.00,,,0.00,,2013-05-15 10:43:00,
2013-05-15 06:53:00,29.0,-99.9,-100.00,North,-999,-999.0,-999.0,-999,0.00,,,0.00,,2013-05-15 10:53:00,
2013-05-15 07:29:00,46.0,-99.9,-100.00,North,-999,-999.0,-999.0,-999,0.00,,,0.00,,2013-05-15 11:29:00,
2013-05-15 08:30:00,50.0,-99.9,-100.00,North,-999,-999.0,-999.0,-999,-99.99,,,0.00,,2013-05-15 12:30:00,
2013-05-15 08:39:00,50.0,-99.9,-100.00,North,-999,-999.0,-999.0,-999,-99.99,,,0.00,,2013-05-15 12:39:00,
2013-05-15 09:00:00,49.0,-99.9,-100.00,North,-999,-999.0,-999.0,-999,0.00,,,0.00,,2013-05-15 13:00:00,
2013-05-15 09:30:00,49.0,-99.9,-100.00,North,-999,-999.0,-999.0,-999,0.00,,,0.00,,2013-05-15 13:30:00,
2013-05-15 09:39:00,49.0,-99.9,-100.00,North,-999,-999.0,-999.0,-999,0.00,,,0.00,,2013-05-15 13:39:00,
2013-05-15 09:50:00,49.0,-99.9,-100.00,North,-999,-999.0,-999.0,-999,0.00,,,0.00,,2013-05-15 13:50:00,
2013-05-15 10:00:00,55.0,-99.9,-100.00,North,-999,-999.0,-999.0,-999,0.00,,,0.00,,2013-05-15 14:00:00,
2013-05-15 10:30:00,55.0,-99.9,-100.00,North,-999,-999.0,-999.0,-999,0.00,,,0.00,,2013-05-15 14:30:00,
2013-05-15 10:41:00,55.0,-99.9,-100.00,North,-999,-999.0,-999.0,-999,0.00,,,0.00,,2013-05-15 14:41:00,
2013-05-15 11:00:00,57.0,-99.9,-100.00,North,-999,-999.0,-999.0,-999,0.00,,,0.00,,2013-05-15 15:00:00,
2013-05-15 11:31:00,57.0,-99.9,-100.00,North,-999,-999.0,-999.0,-999,0.00,,,0.00,,2013-05-15 15:31:00,
2013-05-15 11:43:00,57.0,-99.9,-100.00,North,-999,-999.0,-999.0,-999,0.00,,,0.00,,2013-05-15 15:43:00,
2013-05-15 11:51:00,57.0,-99.9,-100.00,North,-999,-999.0,-999.0,-999,0.00,,,0.00,,2013-05-15 15:51:00,
2013-05-15 12:00:00,58.0,-99.9,-100.00,North,-999,-999.0,-999.0,-999,0.00,,,0.00,,2013-05-15 16:00:00,
2013-05-15 12:32:00,58.0,-99.9,-100.00,North,-999,-999.0,-999.0,-999,0.00,,,0.00,,2013-05-15 16:32:00,
2013-05-15 12:42:00,58.0,-99.9,-100.00,North,-999,-999.0,-999.0,-999,0.00,,,0.00,,2013-05-15 16:42:00,
2013-05-15 12:53:00,58.0,-99.9,-100.00,North,-999,-999.0,-999.0,-999,0.00,,,0.00,,2013-05-15 16:53:00,
2013-05-15 13:00:00,58.0,-99.9,-100.00,North,-999,-999.0,-999.0,-999,0.00,,,0.00,,2013-05-15 17:00:00,
2013-05-15 13:30:00,58.0,-99.9,-100.00,North,-999,-999.0,-999.0,-999,0.00,,,0.00,,2013-05-15 17:30:00,
2013-05-15 13:40:00,58.0,-99.9,-100.00,North,-999,-999.0,-999.0,-999,0.00,,,0.00,,2013-05-15 17:40:00,
2013-05-15 13:50:00,58.0,-99.9,-100.00,North,-999,-999.0,-999.0,-999,0.00,,,0.00,,2013-05-15 17:50:00,
2013-05-15 14:00:00,52.0,-99.9,-100.00,North,-999,-999.0,-999.0,-999,0.00,,,0.00,,2013-05-15 18:00:00,
2013-05-15 14:29:00,52.0,-99.9,-100.00,North,-999,-999.0,-999.0,-999,0.00,,,0.00,,2013-05-15 18:29:00,
2013-05-15 14:39:00,52.0,-99.9,-100.00,North,-999,-999.0,-999.0,-999,0.00,,,0.00,,2013-05-15 18:39:00,
2013-05-15 14:51:00,52.0,-99.9,-100.00,North,-999,-999.0,-999.0,-999,0.00,,,0.00,,2013-05-15 18:51:00,
2013-05-15 15:00:00,49.0,-99.9,-100.00,North,-999,-999.0,-999.0,-999,0.06,,,0.06,,2013-05-15 19:00:00,
2013-05-15 15:33:00,49.0,-99.9,-100.00,North,-999,-999.0,-999.0,-999,0.06,,,0.06,,2013-05-15 19:33:00,
2013-05-15 15:40:00,49.0,-99.9,-100.00,North,-999,-999.0,-999.0,-999,0.06,,,0.06,,2013-05-15 19:40:00,
2013-05-15 15:51:00,49.0,-99.9,-100.00,North,-999,-999.0,-999.0,-999,0.06,,,0.06,,2013-05-15 19:51:00,
2013-05-15 16:00:00,50.0,-99.9,-100.00,North,-999,-999.0,-999.0,-999,0.00,,,0.06,,2013-05-15 20:00:00,
2013-05-15 16:31:00,50.0,-99.9,-100.00,North,-999,-999.0,-999.0,-999,0.00,,,0.06,,2013-05-15 20:31:00,
2013-05-15 16:43:00,50.0,-99.9,-100.00,North,-999,-999.0,-999.0,-999,0.00,,,0.06,,2013-05-15 20:43:00,
2013-05-15 16:49:00,50.0,-99.9,-100.00,North,-999,-999.0,-999.0,-999,0.00,,,0.06,,2013-05-15 20:49:00,
2013-05-15 17:00:00,48.0,-99.9,-100.00,North,-999,-999.0,-999.0,-999,0.03,,,0.09,,2013-05-15 21:00:00,
2013-05-15 17:30:00,48.0,-99.9,-100.00,North,-999,-999.0,-999.0,-999,0.03,,,0.09,,2013-05-15 21:30:00,
2013-05-15 17:45:00,48.0,-99.9,-100.00,North,-999,-999.0,-999.0,-999,0.03,,,0.09,,2013-05-15 21:45:00,
2013-05-15 17:56:00,48.0,-99.9,-100.00,North,-999,-999.0,-999.0,-999,0.03,,,0.09,,2013-05-15 21:56:00,
2013-05-15 18:00:00,49.0,-99.9,-100.00,North,-999,-999.0,-999.0,-999,0.00,,,0.09,,2013-05-15 22:00:00,
2013-05-15 18:32:00,49.0,-99.9,-100.00,North,-999,-999.0,-999.0,-999,0.00,,,0.09,,2013-05-15 22:32:00,
2013-05-15 18:55:00,49.0,-99.9,-100.00,North,-999,-999.0,-999.0,-999,0.00,,,0.09,,2013-05-15 22:55:00,
2013-05-15 19:00:00,48.0,-99.9,-100.00,North,-999,-999.0,-999.0,-999,0.00,,,0.09,,2013-05-15 23:00:00,
2013-05-15 19:41:00,48.0,-99.9,-100.00,North,-999,-999.0,-999.0,-999,0.00,,,0.09,,2013-05-15 23:41:00,
2013-05-15 19:52:00,48.0,-99.9,-100.00,North,-999,-999.0,-999.0,-999,0.00,,,0.09,,2013-05-15 23:52:00,
2013-05-15 20:00:00,48.0,-99.9,-100.00,North,-999,-999.0,-999.0,-999,0.00,,,0.09,,2013-05-16 00:00:00,
2013-05-15 20:29:00,48.0,-99.9,-100.00,North,-999,-999.0,-999.0,-999,0.00,,,0.09,,2013-05-16 00:29:00,
2013-05-15 20:37:00,48.0,-99.9,-100.00,North,-999,-999.0,-999.0,-999,0.00,,,0.09,,2013-05-16 00:37:00,
2013-05-15 21:00:00,48.0,-99.9,-100.00,North,-999,-999.0,-999.0,-999,0.00,,,0.09,,2013-05-16 01:00:00,
2013-05-15 21:43:00,48.0,-99.9,-100.00,North,-999,-999.0,-999.0,-999,0.00,,,0.09,,2013-05-16 01:43:00,
2013-05-15 21:51:00,48.0,-99.9,-100.00,North,-999,-999.0,-999.0,-999,0.00,,,0.09,,2013-05-16 01:51:00,
2013-05-15 22:00:00,49.0,-99.9,-100.00,North,-999,-999.0,-999.0,-999,0.00,,,0.09,,2013-05-16 02:00:00,
2013-05-15 22:41:00,49.0,-99.9,-100.00,North,-999,-999.0,-999.0,-999,0.00,,,0.09,,2013-05-16 02:41:00,
2013-05-15 22:51:00,49.0,-99.9,-100.00,North,-999,-999.0,-999.0,-999,0.00,,,0.09,,2013-05-16 02:51:00,
2013-05-15 22:57:00,49.0,-99.9,-100.00,North,-999,-999.0,-999.0,-999,0.00,,,0.09,,2013-05-16 02:57:00,
2013-05-15 23:00:00,46.0,-99.9,-100.00,North,-999,-999.0,-999.0,-999,0.00,,,0.09,,2013-05-16 03:00:00,
2013-05-15 23:29:00,46.0,-99.9,-100.00,North,-999,-999.0,-999.0,-999,0.00,,,0.09,,2013-05-16 03:29:00,
2013-05-15 23:43:00,46.0,-99.9,-100.00,North,-999,-999.0,-999.0,-999,0.00,,,0.09,,2013-05-16 03:43:00,
2013-05-15 23:50:00,46.0,-99.9,-100.00,North,-999,-999.0,-999.0,-999,0.00,,,0.09,,2013-05-16 03:50:00,